Burlington, IA

2:46 PM CDT on May 26, 2017 (GMT -0500)
Burlington Regional

Weather History for KBRL - August, 2014

Change the Weather History Date:

Friday, August 22, 2014

  Actual Average Record
Temperature  
Mean Temperature 81 °F 75 °F  
Max Temperature 87 °F 85 °F 101 °F (1936)
Min Temperature 74 °F 65 °F 50 °F (1923)
Degree Days  
Heating Degree Days 0 0  
Month to date heating degree days 0 0  
Since 1 June heating degree days 9 14  
Since 1 July heating degree days 7 1  
Cooling Degree Days 16 10  
Month to date cooling degree days 158 234  
Year to date cooling degree days 733 963  
Since 1 June cooling degree days 595 860  
Growing Degree Days 30 (Base 50)    
Moisture  
Dew Point 76 °F    
Average Humidity 85    
Maximum Humidity 100    
Minimum Humidity 70    
Precipitation  
Precipitation 0.47 in 0.14 in 1.58 in (1988)
Month to date precipitation 3.58 2.99  
Year to date precipitation 26.44 25.97  
Sea Level Pressure  
Sea Level Pressure 29.91 in    
Wind  
Wind Speed 5 mph (SSW)    
Max Wind Speed 20 mph    
Max Gust Speed 23 mph    
Visibility 9 miles    
Events Rain , Thunderstorm    
T = Trace of Precipitation, MM = Missing Value Source: NWS Daily Summary

Daily Weather History Graph

Daily Weather History Graph

Search for Another Location

Airport or City:

Trip Planner

Search our weather history database for the weather conditions in past years. The results will help you decide how hot, cold, wet, or windy it might be!

Date:

Astronomy

Aug. 22, 2014 Rise Set
Actual Time 6:21 AM CDT 7:52 PM CDT
Civil Twilight 5:52 AM CDT 8:21 PM CDT
Nautical Twilight 5:18 AM CDT 8:55 PM CDT
Astronomical Twilight 4:41 AM CDT 9:32 PM CDT
Moon 3:44 AM CDT (8/22) 6:01 PM CDT (8/22)
Length of Visible Light 14h 28m
Length of Day
13h 30m
Waning Crescent, 7% of the Moon is Illuminated
Aug 22
Waning Crescent
Aug 25
New
Sep 2
First Quarter
Sep 8
Full
Sep 15
Last Quarter

Hourly Weather History & Observations

Time (CDT) Temp. Heat Index Dew Point Humidity Pressure Visibility Wind Dir Wind Speed Gust Speed Precip Events Conditions
12:04 AM 78.8 °F - 75.2 °F 89% 29.90 in 10.0 mi South 4.6 mph - N/A Thunderstorm Thunderstorm
12:26 AM 80.1 °F 85.8 °F 77.0 °F 90% 29.90 in 3.0 mi SW 4.6 mph 18.4 mph 0.06 in Rain , Thunderstorm Heavy Rain
12:32 AM 80.1 °F 85.8 °F 77.0 °F 90% 29.91 in 1.8 mi SW 10.4 mph 16.1 mph 0.17 in Rain , Thunderstorm Heavy Rain
12:42 AM 80.1 °F 86.4 °F 78.1 °F 94% 29.91 in 3.0 mi SSW 15.0 mph 20.7 mph 0.22 in Rain , Thunderstorm Light Rain
12:49 AM 80.6 °F 87.1 °F 77.0 °F 89% 29.89 in 10.0 mi SSW 16.1 mph 24.2 mph 0.22 in Thunderstorm Thunderstorm
12:53 AM 79.0 °F - 77.0 °F 94% 29.87 in 7.0 mi South 15.0 mph 24.2 mph 0.25 in Rain , Thunderstorm Light Thunderstorms and Rain
1:27 AM 75.9 °F - 73.9 °F 94% 29.87 in 10.0 mi South 9.2 mph - 0.00 in Thunderstorm Scattered Clouds
1:53 AM 75.0 °F - 73.9 °F 96% 29.84 in 10.0 mi SSW 4.6 mph - 0.00 in   Clear
2:53 AM 75.2 °F - 73.4 °F 94% 29.86 in 10.0 mi South 5.8 mph - N/A   Scattered Clouds
3:21 AM 75.9 °F - 75.0 °F 97% 29.86 in 10.0 mi SSW 5.8 mph - N/A Thunderstorm Scattered Clouds
3:46 AM 77.0 °F - 75.0 °F 94% 29.89 in 10.0 mi NNE 4.6 mph - N/A Thunderstorm Thunderstorm
3:53 AM 77.0 °F - 75.2 °F 94% 29.88 in 10.0 mi Calm Calm - N/A Thunderstorm Thunderstorm
4:06 AM 75.9 °F - 75.0 °F 97% 29.88 in 10.0 mi Variable 4.6 mph - N/A Thunderstorm Mostly Cloudy
4:25 AM 77.0 °F - 75.0 °F 94% 29.89 in 10.0 mi Calm Calm - N/A   Scattered Clouds
4:53 AM 75.9 °F - 75.0 °F 97% 29.87 in 10.0 mi South 5.8 mph - N/A   Scattered Clouds
5:11 AM 75.9 °F - 75.0 °F 97% 29.90 in 2.5 mi South 4.6 mph - 0.11 in Rain , Thunderstorm Heavy Rain
5:23 AM 77.0 °F - 75.0 °F 94% 29.91 in 9.0 mi Calm Calm - 0.11 in Thunderstorm Overcast
5:53 AM 77.0 °F - 73.9 °F 90% 29.91 in 10.0 mi West 6.9 mph - 0.13 in Thunderstorm Overcast
6:16 AM 75.9 °F - 73.9 °F 94% 29.94 in 2.0 mi Variable 5.8 mph - 0.13 in Rain , Thunderstorm Heavy Rain
6:25 AM 75.0 °F - 73.9 °F 96% 29.93 in 2.0 mi NNW 6.9 mph - 0.26 in Rain , Thunderstorm Heavy Thunderstorms and Rain
6:40 AM 75.9 °F - 73.9 °F 94% 29.91 in 10.0 mi Variable 4.6 mph - 0.28 in Rain , Thunderstorm Light Thunderstorms and Rain
6:53 AM 75.2 °F - 73.4 °F 94% 29.91 in 10.0 mi West 6.9 mph - N/A Rain , Thunderstorm Light Rain
7:34 AM 75.0 °F - 73.0 °F 94% 29.94 in 10.0 mi SSW 9.2 mph - 0.02 in Rain Light Rain
7:53 AM 73.9 °F - 73.0 °F 97% 29.92 in 8.0 mi SSW 8.1 mph - 0.04 in Rain Light Rain
8:53 AM 77.0 °F - 75.0 °F 94% 29.92 in 10.0 mi North 4.6 mph - 0.02 in Rain Light Rain
9:53 AM 78.8 °F - 73.4 °F 83% 29.96 in 10.0 mi Calm Calm - N/A   Clear
10:53 AM 77.0 °F - 75.0 °F 94% 29.96 in 10.0 mi South 11.5 mph - N/A   Clear
11:53 AM 79.0 °F - 73.9 °F 84% 29.97 in 10.0 mi South 9.2 mph - N/A   Mostly Cloudy
12:53 PM 82.0 °F 88.6 °F 75.0 °F 79% 29.96 in 10.0 mi South 11.5 mph - N/A   Mostly Cloudy
1:53 PM 84.9 °F 94.1 °F 75.9 °F 74% 29.93 in 10.0 mi South 10.4 mph - N/A   Clear
2:53 PM 86.0 °F 96.0 °F 75.9 °F 72% 29.91 in 10.0 mi South 8.1 mph - N/A   Scattered Clouds
3:53 PM 86.0 °F 99.3 °F 78.8 °F 79% 29.92 in 10.0 mi SW 6.9 mph - N/A   Partly Cloudy
4:53 PM 86.0 °F 98.3 °F 78.1 °F 77% 29.90 in 10.0 mi SSW 6.9 mph - N/A   Scattered Clouds
5:53 PM 84.9 °F 96.6 °F 78.1 °F 80% 29.91 in 10.0 mi SW 6.9 mph - N/A   Partly Cloudy
6:35 PM 84.9 °F 96.6 °F 78.1 °F 80% 29.93 in 10.0 mi Calm Calm - N/A   Mostly Cloudy
6:53 PM 84.0 °F 94.8 °F 78.1 °F 82% 29.91 in 10.0 mi SW 3.5 mph - N/A   Mostly Cloudy
7:00 PM 84.0 °F 94.8 °F 78.1 °F 82% 29.93 in 10.0 mi SSW 3.5 mph - N/A   Scattered Clouds
7:53 PM 80.1 °F 86.4 °F 78.1 °F 94% 29.92 in 8.0 mi Calm Calm - N/A   Clear
8:53 PM 80.1 °F 86.4 °F 78.1 °F 94% 29.94 in 9.0 mi Calm Calm - N/A   Partly Cloudy
9:53 PM 78.1 °F - 77.0 °F 96% 29.94 in 9.0 mi Calm Calm - N/A   Mostly Cloudy
10:53 PM 79.0 °F - 77.0 °F 94% 29.93 in 7.0 mi Calm Calm - N/A   Clear
11:53 PM 80.1 °F 86.4 °F 78.1 °F 94% 29.93 in 9.0 mi East 5.8 mph - N/A   Mostly Cloudy